Tracking 18987 objects as of 25-Feb-2018
HD Live streaming from Space Station
objects crossing your sky now

NOAA 16 DEB

Track NOAA 16 DEB now!
10-day predictions


NORAD ID: 41209
Int'l Code: 2000-055DN
Perigee: 752.9 km
Apogee: 856.8 km
Inclination: 98.9 °
Period: 100.8 minutes
Semi major axis: 7175 km
RCS: Unknown
Launch date: September 21, 2000
Source: United States (US)
Launch site: AIR FORCE WESTERN TEST RANGE (AFWTR)

Note: This is SATELLITE DEBRIS
aabbcc
Your satellite tracking list
Your tracking list is empty




NASA's NSSDC Master Catalog

Two Line Element Set (TLE):
1 41209U 00055DN  18055.46901396 +.00000809 +00000-0 +33379-3 0  9998
2 41209 098.8516 149.0138 0072424 238.3244 121.0860 14.28204081114279
Source of the keplerian elements: AFSPC